Location: Muck Cross
(36.7179°N, 78.3678°W)
Time: 10:43:33
(UTC+00:00)

Altair - Visible Passes

Search period start: 29 March 2023 00:00
Search period end: 08 April 2023 00:00
Orbit: 1501 x 1682 km, 47.2° (Epoch: 28 March)

Date Brightness Start Highest point End Pass type
(mag) Time Alt. Az. Time Alt. Az. Time Alt. Az.
29 Mar 8.1 08:19:47 37° S 08:22:34 45° SE 08:31:14 10° ENE visible
29 Mar 7.6 10:17:49 11° WSW 10:27:00 70° NNW 10:36:13 10° NE visible
30 Mar 8.1 07:56:07 39° SSE 07:57:26 41° SE 08:05:58 10° ENE visible
30 Mar 7.5 09:54:09 18° WSW 10:01:47 74° NNW 10:11:03 10° ENE visible
31 Mar 8.2 07:32:23 38° SE 07:32:23 38° SE 07:40:41 10° ENE visible
31 Mar 7.5 09:30:24 26° WSW 09:36:33 78° NNW 09:45:52 10° ENE visible
01 Apr 8.5 07:08:34 33° ESE 07:08:34 33° ESE 07:15:21 10° ENE visible
01 Apr 7.4 09:06:35 35° WSW 09:11:21 82° NNW 09:20:41 10° ENE visible
02 Apr 8.7 06:44:42 27° ESE 06:44:42 27° ESE 06:50:00 10° ENE visible
02 Apr 7.4 08:42:43 47° WSW 08:46:08 87° NW 08:55:30 10° ENE visible
03 Apr 9.0 06:20:47 22° E 06:20:47 22° E 06:24:37 10° ENE visible
03 Apr 7.4 08:18:48 61° SW 08:20:56 88° SSE 08:30:19 10° ENE visible
03 Apr 8.1 10:17:19 10° W 10:26:25 48° NNW 10:35:17 10° ENE visible
04 Apr 9.2 05:56:50 17° E 05:56:50 17° E 05:59:12 10° ENE visible
04 Apr 7.3 07:54:50 75° SSW 07:55:45 83° SE 08:05:08 10° ENE visible
04 Apr 8.0 09:52:49 13° W 10:01:08 50° NNW 10:10:04 10° ENE visible
05 Apr 9.5 05:32:49 12° E 05:32:49 12° E 05:33:44 10° E visible
05 Apr 7.4 07:30:49 77° SE 07:30:49 77° SE 07:39:57 10° ENE visible
05 Apr 7.9 09:28:49 19° W 09:35:50 51° NNW 09:44:50 10° ENE visible
06 Apr 7.6 07:06:46 64° E 07:06:46 64° E 07:14:46 10° ENE visible
06 Apr 7.9 09:04:45 25° W 09:10:33 53° NNW 09:19:37 10° ENE visible
07 Apr 7.9 06:42:41 52° E 06:42:41 52° E 06:49:34 10° ENE visible
07 Apr 7.8 08:40:40 32° W 08:45:16 56° NNW 08:54:24 10° ENE visible
